sat.trackr.live / text

‹ back to catalog

ONEWEB-0375

NORAD 49301 · 2021-090Y

PAYLOAD ACTIVE UNKNOWN

§ Identity

Operator
Country
UK
Launch date
2021-10-14
Launch site
VOSTO
Launch vehicle
Mass (kg)
RCS (m²)

Purposes: comms

External: N2YO · Heavens-Above · Gunter

§ Orbital elements

Epoch: 2026-05-25T01:40:45.711264Z

Period
109.03 min
Inclination
87.9174°
Eccentricity
0.0002480
Mean motion
13.20772429 rev/d
Perigee alt
1,179.9 km
Apogee alt
1,183.6 km
Semi-major
7,559.9 km
B*
1.3251e-4
RAAN
279.0428°
Arg perigee
99.1829°
Mean anomaly
260.9585°
Rev number
22,747

§ Raw data

ONEWEB-03751 49301U 21090Y   26145.06997351  .00000067  00000+0  13251-3 0  99942 49301  87.9174 279.0428 0002480  99.1829 260.9585 13.20772429227473

JSON: /api/v1/satellites/49301 · /tle

For live sub-satellite position, see the globe view (requires WebGL).

§ Visibility from observer

Set your observer location to see the next 7 days of passes ≥ 10°. The values pass through the URL so the page stays shareable.

No JS? Fill the form by hand. The geolocation button needs JavaScript.